Dewpoint
55 49 50 48 44 40 39 35 28 37 37 31 27 32 28 35 34 38 39 41 40 44 45 47 50 50 45 46 46 47 48 45 45 43 46 57 63 63 65 65 66 66 66 67 68 69 70 70 70 70 68 68 67 67 67 68 69 70 70 70 70 70 69 69 69 69 68 67 66 66 65 64 62 63 64 65 65 65 65 64 64 65 65 65 64 64 64 63 65 65 65 65 64 65 65 64 63
50 48 48 46 42 41 35 32 31 28 31 27 29 29 30 35 36 36 37 38 43 48 51 48 49 51 52 52 50 50 49 50 53 54 57 61 62 64 65 65 65 65 66 67 67 68 69 69 70 69 68 67 67 67 66 67 67 69 70 70 70 68 68 69 69 69 68 66 65 64 63 63 63 62 62 62 62 62 62 63 63 62 66 65 64 64 65 65 65 65 65 64 65 65 65 64 63
48 46 39 41 38 35 35 33 28 28 27 24 25 28 35 34 33 36 38 40 50 52 51 50 52 51 49 50 47 46 45 56 55 57 59 63 61 63 65 66 66 66 66 67 67 67 68 69 70 69 68 67 67 66 66 66 66 67 68 68 67 67 66 68 69 69 68 66 65 64 64 63 63 62 65 65 66 66 65 65 65 65 64 63 63 64 64 66 66 65 65 64 64 65 65 64 62
52 51 40 40 32 35 29 29 30 26 27 25 23 29 32 32 33 38 43 51 52 50 49 48 48 54 51 46 48 51 49 50 57 59 59 61 60 63 65 65 67 66 67 68 67 68 69 69 70 70 68 67 67 65 65 65 65 66 66 67 67 66 66 66 66 68 68 67 66 65 65 65 65 65 65 65 63 64 64 63 64 65 65 64 65 65 65 65 65 65 65 64 64 65 64 63 62
48 48 45 38 36 33 34 33 29 27 23 22 22 28 30 34 36 42 47 51 51 49 50 50 51 54 55 54 53 47 51 56 57 60 60 61 63 63 65 65 66 66 67 66 66 67 68 68 70 69 68 67 67 65 65 65 65 65 65 65 65 66 66 66 67 66 66 65 65 64 65 66 66 66 65 64 63 63 63 63 64 65 64 64 63 62 65 64 64 64 64 64 64 64 63 62 62
47 44 47 42 32 36 31 29 28 24 25 26 21 29 29 35 38 44 48 50 50 50 49 49 49 51 49 54 56 51 55 52 59 59 60 60 63 64 65 67 65 66 66 67 67 68 68 69 70 69 69 67 67 66 66 65 65 65 66 66 66 66 66 67 66 65 64 64 63 63 66 67 68 67 65 64 63 63 64 63 63 63 63 64 65 65 64 64 64 64 63 64 64 63 63 63 62
41 40 40 40 39 40 32 26 24 26 25 26 25 32 33 37 43 47 48 48 47 48 46 47 51 51 46 53 54 56 57 58 59 59 62 62 65 64 66 65 65 65 67 67 68 68 69 68 70 69 69 68 67 66 66 66 65 66 66 66 66 65 65 66 66 64 64 64 66 68 68 68 68 66 65 65 65 63 62 62 63 64 63 63 63 63 63 64 64 64 63 63 64 63 62 62 62
47 37 39 34 36 36 31 29 28 27 26 26 27 30 38 41 46 46 47 46 44 44 48 52 52 50 48 55 50 57 58 58 58 58 61 62 65 65 66 65 65 65 66 67 68 68 69 68 70 70 70 69 67 67 67 67 66 66 66 66 65 65 66 66 66 65 66 66 67 68 68 68 68 66 66 66 65 64 65 65 63 63 63 63 63 63 63 64 64 63 63 63 64 63 62 62 61
41 37 47 39 34 36 30 28 29 30 28 29 29 30 43 45 46 46 45 44 42 43 48 51 50 43 49 51 49 56 56 58 59 60 62 63 64 65 65 64 64 65 67 67 68 69 69 68 69 69 70 68 68 67 67 67 66 66 66 65 65 65 65 65 64 65 65 66 65 67 69 68 68 67 66 65 65 66 65 63 61 63 64 64 64 63 63 63 63 63 63 63 64 63 63 63 63
39 38 35 36 37 34 30 30 28 29 28 27 27 39 41 44 45 43 43 42 40 42 49 51 48 43 48 45 49 54 56 59 60 62 63 63 64 64 64 65 65 65 66 67 67 68 68 70 68 68 69 69 69 69 67 67 67 66 65 65 65 65 65 65 66 66 66 65 65 65 67 68 68 68 67 67 67 65 64 64 65 65 63 63 63 63 63 63 63 63 63 64 64 63 62 62 63
39 37 42 37 36 34 33 29 28 28 26 27 30 30 44 44 42 42 40 38 41 43 50 51 48 47 49 46 51 57 58 60 61 61 63 64 65 64 64 64 65 65 65 68 68 68 67 68 70 67 68 68 69 69 68 68 66 66 66 65 65 65 66 66 67 67 66 65 66 66 66 67 67 68 67 67 66 65 65 65 65 65 64 63 63 63 63 63 62 63 63 63 63 63 63 63 63
36 39 40 39 35 35 33 30 28 27 26 31 36 38 41 44 42 40 38 37 39 42 46 50 43 50 46 48 48 55 58 61 62 62 63 65 65 65 64 65 66 66 66 67 68 67 67 68 69 69 66 67 67 68 68 68 68 65 67 67 67 66 67 67 67 66 65 65 66 66 66 66 67 67 67 67 66 66 65 65 65 64 64 64 63 63 63 63 63 63 63 63 63 62 62 62 63
38 40 37 37 37 34 32 29 29 31 28 32 36 37 43 43 41 39 37 37 38 39 41 49 54 51 39 43 52 56 56 59 62 62 64 64 65 65 65 65 65 66 66 67 67 67 68 67 67 68 67 65 65 66 66 67 67 67 67 67 68 68 68 67 66 66 65 65 66 66 67 67 67 67 66 66 66 65 65 64 64 64 64 63 63 63 64 63 63 63 63 62 62 62 62 62 63
39 40 36 39 36 33 33 32 30 27 25 33 35 35 43 42 43 39 37 35 37 36 41 45 49 50 42 48 47 51 55 60 62 63 64 64 65 65 65 66 66 66 67 67 67 67 67 67 66 67 68 68 68 65 64 65 66 67 68 68 68 68 68 67 67 68 67 68 68 68 68 67 67 67 67 66 66 65 66 65 63 63 63 63 63 64 63 63 63 63 63 64 65 64 64 64 63
38 42 36 38 34 33 33 33 31 28 27 35 33 39 41 41 37 40 37 31 34 41 46 48 54 47 32 36 36 50 57 61 62 64 65 64 64 65 66 66 66 66 66 66 66 66 65 67 67 67 67 67 67 66 66 68 65 66 67 67 67 67 67 67 67 66 67 66 65 65 65 65 65 65 66 66 66 66 66 65 65 64 63 63 63 63 63 63 64 64 64 64 65 65 64 64 63
44 38 36 36 35 33 34 32 30 29 27 33 30 33 41 36 36 39 39 37 38 41 44 40 49 42 40 35 48 54 55 60 62 64 64 64 65 64 66 66 66 65 66 66 66 66 67 66 67 67 66 65 66 65 65 65 65 64 65 66 66 66 66 66 65 64 64 63 63 63 63 64 63 63 61 63 63 64 64 63 65 65 64 63 63 63 62 63 64 64 65 64 64 64 64 63 63
44 42 33 35 34 34 36 31 29 31 29 30 29 34 38 35 36 37 39 39 37 40 43 46 46 52 43 43 54 57 56 60 62 64 64 64 64 66 66 66 65 65 65 65 66 65 66 66 66 66 66 65 65 65 65 65 69 64 64 64 64 64 64 64 63 61 60 60 60 60 62 65 65 64 65 64 62 64 60 62 65 65 64 64 63 63 63 63 64 65 65 63 63 63 60 61 61
40 36 36 34 36 34 34 32 30 30 28 27 30 32 34 33 34 35 40 38 40 43 43 45 48 50 50 53 57 57 57 60 63 63 63 62 63 64 64 64 64 64 65 65 65 65 65 66 65 65 66 66 65 65 65 66 67 66 65 66 67 65 62 61 63 65 63 64 58 62 64 62 61 63 63 63 63 63 62 60 62 63 64 64 64 64 64 63 64 65 64 62 62 61 59 61 60
41 38 36 35 35 33 32 31 30 27 27 26 29 31 33 32 34 36 35 36 38 37 39 42 43 45 51 53 56 57 58 60 62 62 62 61 62 61 62 62 62 62 63 63 65 64 65 65 66 64 65 66 66 66 66 65 65 65 65 65 65 64 65 65 65 64 64 64 63 64 62 62 61 62 63 63 64 59 61 59 61 62 62 62 62 62 62 63 63 63 62 62 60 59 62 59 58
38 38 38 37 38 34 33 31 31 29 26 26 27 30 33 33 34 37 35 35 38 35 35 38 39 38 44 53 56 57 58 59 61 62 61 61 61 61 61 61 62 62 62 62 63 64 64 65 65 65 65 66 65 65 66 64 64 64 64 64 64 64 65 65 65 64 63 63 63 63 61 62 62 61 62 62 61 62 60 58 58 59 59 58 58 60 59 60 59 59 59 59 60 60 58 57 57
39 37 39 38 35 36 34 33 29 29 26 26 26 30 32 31 34 35 34 34 35 35 35 34 35 36 37 54 55 57 57 59 60 61 60 61 61 61 60 60 61 61 62 62 63 63 63 64 64 65 65 65 65 65 65 64 64 64 64 63 63 63 64 64 64 64 63 63 63 61 62 62 62 61 62 62 62 62 62 62 61 62 62 62 57 61 61 62 60 60 59 58 58 59 58 57 57
40 39 38 36 35 36 31 29 27 26 24 25 27 29 30 30 34 34 35 31 29 31 35 37 35 35 42 51 56 57 57 59 58 59 60 60 61 61 61 61 61 61 62 62 63 63 63 63 64 64 64 64 64 65 64 64 65 64 64 63 62 63 64 64 64 63 63 63 62 62 61 61 61 61 61 62 62 61 61 61 61 61 61 61 59 59 58 58 57 58 58 58 57 58 58 57 57
39 38 37 37 35 34 24 24 25 25 23 24 27 28 28 30 31 33 35 33 33 34 34 38 37 39 42 49 56 56 57 58 58 59 59 59 60 60 60 60 59 60 61 61 62 62 63 63 64 65 64 64 64 64 64 64 64 64 64 64 63 63 63 64 63 63 63 62 62 62 60 60 60 60 61 61 61 60 60 60 60 60 60 60 59 57 58 57 56 55 56 57 58 58 58 58 58
40 40 37 37 36 36 30 27 25 24 23 23 26 27 27 29 29 29 34 35 35 32 28 28 27 32 46 49 55 54 56 57 58 58 59 59 60 60 60 60 59 59 60 60 61 62 63 63 63 64 64 64 64 64 64 64 64 64 64 64 64 62 63 63 63 63 63 61 61 60 59 59 58 58 59 60 60 60 59 60 59 59 60 59 59 57 56 55 54 55 57 57 58 58 58 58 57
39 40 36 35 35 35 32 31 27 27 25 30 28 26 26 27 27 27 29 32 34 35 32 35 32 38 44 46 52 54 55 56 57 58 59 59 60 61 61 60 59 59 59 60 60 61 62 62 62 64 64 63 63 64 64 64 65 64 64 65 64 62 63 63 62 62 62 61 61 61 60 59 57 58 58 58 58 59 59 59 59 58 58 59 59 56 56 55 54 53 55 56 57 58 57 57 57
37 39 36 34 34 33 33 31 33 32 32 31 28 25 27 29 33 28 27 27 28 30 30 37 45 44 46 46 49 52 54 55 56 57 57 59 59 60 60 59 59 58 59 59 60 60 60 61 62 63 64 64 64 64 64 64 64 64 64 64 64 63 63 63 63 62 62 61 60 60 60 59 59 58 58 58 57 58 57 58 58 58 58 58 58 56 55 54 52 52 54 57 57 58 57 57 57
37 37 36 36 34 33 36 32 31 36 35 32 28 27 27 33 29 25 28 28 32 31 31 46 44 39 43 47 49 51 52 53 55 55 57 58 58 59 59 59 59 59 59 59 59 60 60 61 62 62 63 64 64 63 63 64 64 64 64 64 64 64 63 63 62 62 62 61 60 61 61 60 60 59 58 58 57 57 57 57 56 57 57 58 58 56 56 55 53 52 54 54 56 56 56 57 57
36 35 35 34 35 35 35 34 30 36 32 35 31 29 32 34 32 27 29 32 32 31 31 36 42 40 39 45 49 52 52 53 55 56 55 56 57 57 58 58 59 59 60 60 60 60 60 60 61 63 62 63 64 63 63 63 64 64 64 64 64 63 63 63 63 62 61 61 61 60 60 59 59 59 59 58 57 57 56 56 56 57 57 57 57 56 55 55 54 54 57 58 58 58 57 57 58
35 35 37 35 35 34 35 34 32 34 33 35 34 32 31 33 30 32 31 31 31 32 31 31 34 38 40 43 48 51 52 52 55 55 55 55 56 56 57 58 58 59 60 60 60 61 60 60 61 61 63 63 63 63 62 63 64 64 64 64 64 64 63 63 63 62 62 62 61 61 60 60 59 59 59 59 58 58 58 59 58 57 56 56 56 57 57 57 56 56 56 58 57 57 57 58 59
38 39 41 40 39 39 37 35 36 33 33 34 35 36 37 37 33 32 32 31 31 30 30 30 31 33 36 42 46 48 51 54 54 55 55 55 55 56 56 56 58 58 59 60 61 60 60 61 61 62 62 63 63 62 62 63 63 64 64 64 64 64 63 63 63 62 62 62 61 61 61 60 60 59 59 60 59 58 59 59 59 59 57 57 56 57 56 56 55 56 55 56 55 56 56 57 56
41 39 41 42 41 41 37 37 36 34 35 35 35 37 38 40 38 33 33 33 32 31 31 31 32 32 33 39 41 43 46 52 52 53 56 56 56 56 56 56 57 58 58 59 60 60 60 61 61 60 62 62 63 63 63 63 63 63 63 64 63 63 63 63 62 62 62 62 61 61 61 60 60 60 60 59 59 59 58 58 58 59 59 59 56 56 56 57 57 56 55 54 55 55 56 57 57
41 41 41 42 41 41 40 37 36 40 35 35 34 37 38 40 40 37 35 34 33 32 33 33 33 33 33 34 35 38 40 45 51 52 54 55 56 56 56 56 56 57 57 58 59 60 60 60 61 61 61 62 62 62 63 63 63 63 63 62 63 63 62 62 62 62 62 61 61 61 61 61 60 60 59 59 58 58 57 57 57 58 60 59 58 58 59 57 57 57 56 56 53 55 55 56 57
40 42 42 41 42 42 40 37 37 39 35 35 36 39 39 39 38 37 35 34 33 33 33 33 33 33 33 33 34 34 35 36 42 46 50 52 54 56 56 55 56 57 57 57 58 59 59 60 60 61 61 61 61 62 63 63 63 63 63 63 63 63 62 62 62 62 61 61 61 60 60 60 60 60 60 59 58 58 57 57 56 59 60 59 59 58 58 58 57 58 56 57 56 53 55 56 56
40 41 41 40 40 41 40 38 37 39 37 36 34 37 39 40 36 35 35 35 34 33 33 33 34 34 35 36 36 35 35 36 36 38 42 47 51 54 55 55 56 57 57 57 58 58 58 59 61 61 61 61 61 61 62 63 63 63 63 63 62 62 62 62 61 61 61 61 61 60 61 61 60 61 60 60 58 58 57 57 57 58 59 59 59 58 58 58 58 57 55 57 56 55 53 55 55
38 39 40 37 39 40 41 40 38 37 36 37 36 35 37 39 40 38 36 34 35 35 35 35 35 36 36 37 37 36 37 37 37 38 39 41 48 53 55 56 57 58 57 57 57 58 58 59 60 61 61 61 61 61 62 62 62 62 62 63 62 62 62 62 61 61 61 61 61 61 61 60 60 61 61 60 59 58 57 57 57 59 59 58 58 58 57 57 57 57 57 56 57 56 55 56 56
37 39 39 38 38 38 39 40 38 37 36 36 36 35 35 36 37 38 38 36 36 37 37 38 38 38 38 38 39 39 40 39 40 40 41 39 42 47 52 54 57 58 57 57 57 58 58 58 59 60 60 60 61 61 61 62 62 62 62 63 62 61 61 61 61 61 61 61 61 61 61 61 61 60 60 60 59 58 57 56 57 58 58 58 58 57 56 55 56 56 56 57 56 57 57 57 57
40 40 40 38 38 38 38 38 37 38 37 37 37 37 37 38 38 38 38 38 38 37 38 38 39 39 39 39 39 40 40 39 44 44 44 44 43 43 47 51 55 57 57 57 57 57 57 57 58 58 59 60 60 59 61 61 62 62 62 62 61 61 61 61 60 61 61 61 61 61 61 60 61 61 60 60 59 58 57 57 57 57 58 58 57 57 57 56 56 56 56 57 56 56 57 57 58
38 39 39 38 39 37 38 39 37 37 38 38 37 37 37 37 38 38 38 38 37 37 37 38 38 38 38 39 40 41 40 42 44 43 42 42 42 44 44 49 52 53 55 56 57 57 57 57 57 58 58 59 59 59 60 60 61 61 60 61 61 61 60 60 60 60 60 61 61 61 61 60 61 61 60 60 59 59 58 57 58 57 57 57 57 57 57 56 57 57 56 55 56 56 55 57 57
39 37 39 38 36 38 38 38 39 37 37 37 38 37 37 38 38 39 38 37 37 38 38 38 38 39 39 39 39 40 41 42 42 41 42 41 45 46 45 47 49 50 52 55 57 58 58 58 58 58 58 58 59 59 60 60 60 60 60 60 61 61 61 61 60 60 61 60 61 61 61 61 60 60 61 60 59 59 59 58 57 57 57 56 56 56 57 56 56 56 56 55 54 55 54 56 56
40 38 38 36 38 38 35 38 38 36 37 37 35 35 36 37 38 38 38 38 38 39 39 39 39 39 39 39 40 41 41 42 43 43 41 41 43 44 45 46 47 50 52 53 56 57 57 58 58 58 58 58 58 59 59 61 61 61 60 61 61 60 60 60 61 61 61 61 60 61 61 61 60 60 60 60 59 59 59 58 58 57 57 57 57 56 56 56 56 55 55 56 55 53 54 54 55
41 40 37 35 39 38 35 35 37 36 35 36 35 36 36 36 36 36 37 39 38 39 39 39 40 42 42 43 44 44 41 41 42 42 43 42 41 41 42 44 45 49 52 53 55 56 57 58 58 58 58 58 58 58 59 60 60 61 59 61 61 61 60 60 60 59 60 59 60 60 60 60 60 59 60 60 59 59 59 59 58 58 58 58 57 56 56 56 56 56 56 56 56 54 54 55 54
40 42 40 37 38 37 38 38 38 36 35 35 36 33 32 33 36 35 34 38 37 38 38 39 39 40 41 40 41 42 44 44 43 42 42 43 43 43 43 44 45 48 49 53 55 56 57 58 58 58 58 58 58 58 59 59 59 59 58 58 58 58 58 58 57 57 58 59 59 59 60 60 60 60 60 59 59 58 59 59 59 58 58 59 58 57 56 57 57 56 56 57 57 56 54 54 54
38 39 42 40 39 38 39 39 38 36 31 34 35 31 28 34 33 34 35 37 37 38 39 39 39 39 39 40 41 40 41 42 44 43 43 42 43 43 44 44 45 45 46 51 55 56 57 58 58 59 58 58 59 58 59 58 59 59 59 58 58 58 57 58 58 59 59 59 59 59 59 59 59 59 59 59 59 59 59 59 59 59 58 58 58 57 57 56 57 57 57 57 56 56 57 54 54
40 43 42 41 40 41 40 40 38 36 40 40 35 36 33 32 33 35 35 35 35 36 37 39 39 39 38 38 39 40 41 41 43 44 43 42 42 42 42 43 44 43 45 50 53 55 56 57 58 59 58 58 59 59 58 58 58 58 59 59 58 58 58 57 58 58 59 59 59 59 59 59 59 59 59 59 59 59 58 59 59 59 59 59 58 57 57 57 57 58 58 58 57 56 56 55 54
44 44 42 41 40 41 42 41 40 41 40 35 36 38 35 33 34 35 34 33 33 34 35 36 37 37 37 38 38 40 41 41 41 42 42 42 43 43 43 43 44 43 44 48 50 52 55 57 58 58 58 58 58 59 58 58 58 58 58 59 59 58 58 58 58 58 58 59 59 59 59 59 59 59 59 59 59 59 58 59 59 59 59 58 57 58 58 58 58 58 58 57 57 56 56 56 55
45 43 42 43 43 43 43 41 40 40 37 33 34 36 33 30 34 34 35 33 31 33 35 35 36 36 37 38 39 40 40 41 43 40 40 41 42 43 44 44 43 44 45 47 47 50 54 56 57 58 58 58 58 58 58 58 58 57 58 58 59 58 58 58 58 58 58 59 58 59 59 58 59 59 59 59 59 59 59 58 59 59 59 58 57 58 58 58 58 57 57 58 57 57 56 55 56
45 46 42 42 41 40 40 41 40 37 33 35 35 35 34 30 33 32 34 33 32 32 33 34 35 37 36 38 40 41 39 40 41 42 42 42 42 41 42 41 42 43 47 46 46 47 51 54 55 57 57 58 58 58 58 58 58 57 57 58 58 58 59 58 57 58 58 58 58 58 58 58 58 58 59 58 59 59 59 58 58 58 58 57 57 58 57 57 57 56 56 57 57 57 55 56 56
46 44 42 42 38 40 37 36 38 33 31 35 36 36 34 30 32 33 32 34 33 31 30 32 33 34 36 39 38 38 37 38 39 39 40 42 42 42 43 42 42 42 44 45 47 48 49 51 53 54 56 57 58 58 58 58 58 58 58 58 58 58 58 58 57 57 58 58 58 58 58 58 58 59 59 58 58 59 58 58 58 58 58 58 58 57 57 57 57 57 55 54 55 56 56 55 56
45 43 42 36 32 34 30 33 29 31 30 33 36 37 35 33 32 32 33 33 34 34 34 32 33 32 35 37 39 40 42 41 40 41 41 42 43 43 43 42 43 45 45 44 45 47 48 48 50 52 53 56 57 58 58 58 58 58 58 57 58 58 58 58 58 57 58 58 58 58 58 58 58 58 58 58 58 59 58 58 58 58 58 58 58 58 58 58 57 57 57 56 55 55 55 55 55
43 40 37 33 31 29 28 30 31 31 33 35 35 38 32 32 31 33 34 35 35 33 35 37 35 35 35 36 37 37 42 42 42 42 43 43 43 44 44 43 42 43 44 45 45 45 47 48 48 50 51 53 56 57 58 58 58 58 58 58 57 57 58 58 58 57 57 57 58 58 58 57 58 58 58 58 58 58 58 58 58 58 58 58 58 58 58 58 58 57 57 57 57 56 56 56 55
41 42 39 34 33 30 27 29 28 29 29 33 37 32 31 28 27 32 33 34 35 35 34 36 38 38 38 37 40 39 40 39 42 43 44 43 43 43 44 44 44 44 44 44 44 45 45 46 48 48 49 51 54 56 57 57 57 58 58 58 58 57 57 57 57 58 58 58 57 58 58 58 57 58 58 58 58 59 58 58 58 58 58 58 58 58 58 58 58 57 57 57 57 57 56 56 56
41 41 40 36 33 35 30 31 31 30 29 29 32 31 32 29 31 34 33 34 34 34 36 36 36 36 39 39 39 39 39 39 41 42 43 43 43 43 43 44 44 44 43 44 44 45 46 46 47 48 49 50 52 55 56 57 58 58 58 58 58 57 57 57 57 58 57 58 58 58 58 58 58 58 58 59 59 59 59 59 58 58 58 59 58 58 58 58 58 58 57 57 57 57 57 57 56
40 41 35 37 45 41 33 32 33 33 31 29 33 32 33 33 32 32 32 33 32 32 33 34 35 36 38 39 39 38 39 40 42 43 42 42 42 42 43 42 42 42 43 44 44 45 45 45 46 47 49 50 52 54 55 56 57 58 58 58 58 58 58 57 57 58 58 58 58 58 58 58 58 58 59 59 59 59 59 59 58 58 58 58 58 58 58 58 58 58 57 57 57 57 57 57 57
42 35 39 44 45 43 36 28 31 30 27 28 33 31 30 30 27 31 31 31 31 32 32 32 33 36 36 39 40 40 41 41 40 39 40 40 40 39 40 42 41 40 41 42 42 43 44 44 44 45 46 49 51 53 54 55 57 58 58 58 58 58 58 58 58 57 58 58 58 58 58 58 58 58 58 60 59 59 59 57 58 58 58 58 58 58 58 58 58 57 57 57 57 57 57 57 57
44 41 46 36 32 31 35 30 25 24 24 26 28 28 27 27 26 27 26 27 28 30 32 32 32 33 35 36 37 39 39 40 40 40 41 41 41 41 41 41 40 39 39 40 41 41 42 43 43 43 44 46 49 52 53 54 56 58 59 58 58 58 58 58 58 58 58 58 58 58 58 58 59 59 58 59 59 59 58 58 58 58 58 58 58 58 58 57 57 57 57 57 57 57 57 57 57
43 43 42 43 40 36 32 31 30 26 24 24 25 28 26 31 27 27 27 28 29 28 30 30 30 31 32 33 36 37 40 40 40 40 41 41 40 39 38 39 38 39 39 41 41 42 41 42 42 43 44 46 49 52 53 54 55 56 58 58 59 59 58 58 58 58 58 58 58 58 58 59 59 58 59 59 58 58 58 58 58 58 58 58 58 58 58 57 57 57 57 57 57 57 57 57 57
38 39 39 40 37 42 42 36 32 30 26 25 24 24 26 28 29 29 29 28 29 29 30 31 31 31 32 34 36 38 39 40 41 41 39 39 39 38 39 39 40 39 40 39 40 40 40 41 42 43 44 45 48 50 52 54 54 56 57 58 58 59 59 59 59 58 58 58 58 58 58 59 59 58 58 58 58 58 58 58 58 58 58 58 58 58 58 58 57 58 58 58 57 57 57 57 56
36 36 36 38 36 33 30 29 37 32 30 27 25 24 26 25 27 28 28 28 29 31 31 32 32 31 34 37 39 38 40 39 38 38 37 38 38 38 39 40 41 41 40 39 39 39 39 39 41 42 44 46 47 49 52 53 55 56 56 57 57 58 59 58 58 58 58 58 58 58 58 58 58 58 58 58 58 59 58 58 58 58 58 58 58 58 58 58 58 58 58 58 57 57 57 57 56